STARLINK-11246, 60932

Orbit data source: Space-Track

STARLINK-11246, 60932 is a payload satellite owned by SpaceX/Seattle (US) in LEO that was launched on Sat, 31 Aug 2024 UTC via an FALCON 9 launch vehicle from the Air Force Western Test Range (AFWTR). Payloads include a variety of satellites, spacecraft, and rockets equipped with specific instruments for various scientific and technological missions. These include communications satellites like Starlink; space stations such as the ISS; scientific satellites like the Hubble; Earth observation satellites from companies like Planet Labs, Umbra, and HawkEye 360; GPS; miniature CubeSats for education and research; and military/defense satellites.

Loading next visibility...
STARLINK-11246 details
Identifier
60932, 2024-155J
Orbit
LEO
Last TLE update14 hours ago
Origin
Flag of USSpaceX/Seattle (US)
ManufacturerSpaceX/Seattle
MissionOperational spacecraft
Bus & MotorSTARLINK V2M, Unknown motor
Mass730 kg wet, ~700 kg dry
Launch date (UTC)
2024-08-31 (5 months ago)
Launch vehicle
FALCON 9
Launch site
Air Force Western Test Range (AFWTR)
Object type
Payload
Rocket body
Debris
Shape & HBRUnknown
Radar Cross SectionLarge (>1 m²)

Expand to show TLE details & history

TLE from 14 hours ago
0 STARLINK-11246
1 60932U 24155J   25015.05393841 -.00000312  00000-0  22797-5 0  9992
2 60932  53.1590 244.7772 0000891  89.6707 270.4412 15.69712636 22485
Epoch: 2025-01-15T01:17Z
Definitive object data (Epoch: 2025-01-15T01:17:40.278Z)
Latitude-0.00011°
Longitude110.6075°
Altitude360.63 km
Speed7.694 km/s
True Right ascension16h 19m 06s
True Declination0° 00' 00"
Sunlit
Object was in daylight at TLE epoch
Visualization TLE readout
Latitude-34.82884°
Longitude76.59949°
Altitude371.207 km
Speed7.686 km/s
Apparent Right ascension09h 57m 33s
Apparent Declination-75° 02' 24"
Sunlit
Object is in daylight
Visualization observer readout
Local Sidereal Time15:32:02
Azimuth198.667° SSW
Elevation-36.721°
Doppler factor1
Orbital elements
Apogee altitude360.58 km
Perigee altitude359.38 km
Semi-major axis6,738.117 km
Eccentricity0.0000891
Inclination53.159°
RAAN244.7772°
Arg. of periapsis89.6707°
True anomaly270.43099°
Mean anomaly270.4412°
Eccentric anomaly270.4361°
Mean motion3.92406 °/min
BSTAR0.0000022797
Orbital period91.74 mins
Loading maneuver chart data...
Loading historical data...
Loading historical data...
Loading historical data...
Loading historical data...
Loading historical data...
Loading historical data...
Loading historical data...

STARLINK-11246 Visibility forecast

Observer location: undefined°, undefined

Span
Click to sort rows by Start time (UTC) header in descending order
Start Az.
Max El. time (UTC)
Max El. Az.
Max El.
End time (UTC)
End Az.
4 mins2025-01-15 18:19:16.728Z260.628° W2025-01-15 18:20:16.728Z300.476° NW36.356°2025-01-15 18:23:16.728Z40.021° NE
|